{"data":{"norad_id":55093,"epoch":"2026-09-21T23:25:06.117600Z","epoch_age_seconds":37397,"freshness":"FRESH","line1":"1 55093U 23001CN  26264.97576525  .00006111  00000+0  14732-3 0  9992","line2":"2 55093  97.3160 332.3462 0010730  94.4490 265.7983 15.41549923207275","mean_motion":15.41549923,"eccentricity":0.001073,"inclination_deg":97.316,"raan_deg":332.3462,"arg_perigee_deg":94.449,"mean_anomaly_deg":265.7983,"bstar":0.00014732,"rev_number":20727,"period_min":93.412479123454,"perigee_km":434.21683519773,"apogee_km":448.85184989884,"semimajor_km":6819.6713425483,"source":"CELESTRAK","updated_at":"2026-09-22T09:00:25.270370Z"}}